NOAA 16 DEB, 41366

Orbit data source: Space-Track

NOAA 16 DEB, 41366 is space debris in SSO originally from a launch on Thu, 21 Sep 2000 UTC launched from the Air Force Western Test Range (AFWTR). Debris objects in space refer to the collection of defunct objects orbiting the Earth. Examples of debris include non-operational satellites, rocket bodies, and fragments generated from explosions, collisions, or faulty payload assembly.

Loading next visibility...
NOAA 16 DEB details
Identifier
41366, 2000-055JK
Orbit
SSO
Last TLE update10 hours ago
Origin
Flag of USNOAA (US)
ManufacturerUnknown
MissionSpacecraft
Bus & MotorUnknown
MassUnknown
Launch date (UTC)
2000-09-21 (24 years ago)
Launch vehicleUnknown
Launch site
Air Force Western Test Range (AFWTR)
Object type
Payload
Rocket body
Debris
Shape & HBRUnknown
Radar Cross SectionSmall (<0.1 m²)

Expand to show TLE details & history

TLE from 10 hours ago
0 NOAA 16 DEB
1 41366U 00055JK  24346.47816565  .00014094  00000-0  59146-2 0  9996
2 41366  98.9434  74.6658 0031071  66.2338 294.2094 14.25735991454677
Epoch: 2024-12-11T11:28Z
Definitive object data (Epoch: 2024-12-11T11:28:33.512Z)
Latitude-0.00003°
Longitude-178.1461°
Altitude799.836 km
Speed7.458 km/s
True Right ascension04h 58m 39s
True Declination0° 00' 00"
Sunlit
Object was in full shadow at TLE epoch
Visualization TLE readout
Latitude62.98127°
Longitude164.41932°
Altitude794.436 km
Speed7.474 km/s
Apparent Right ascension06h 32m 58s
Apparent Declination18° 28' 50"
Sunlit
Object is in full shadow
Visualization observer readout
Local Sidereal Time20:16:45
Azimuth27.7° NE
Elevation-26.79°
Doppler factor1
Orbital elements
Apogee altitude825.495 km
Perigee altitude780.868 km
Semi-major axis7,181.318 km
Eccentricity0.0031071
Inclination98.9434°
RAAN74.6658°
Arg. of periapsis66.2338°
True anomaly293.88415°
Mean anomaly294.2094°
Eccentric anomaly294.04683°
Mean motion3.56646 °/min
BSTAR0.0059146
Orbital period100.94 mins
Loading maneuver chart data...
Loading historical data...
Loading historical data...
Loading historical data...
Loading historical data...
Loading historical data...
Loading historical data...
Loading historical data...

NOAA 16 DEB Visibility forecast

Observer location: undefined°, undefined

Span
Click to sort rows by Start time (UTC) header in descending order
Start Az.
Max El. time (UTC)
Max El. Az.
Max El.
End time (UTC)
End Az.
8 mins2024-12-12 06:07:49.581Z169.738° S2024-12-12 06:11:49.581Z314.665° NW43.847°2024-12-12 06:15:49.581Z343.628° N
7 mins2024-12-12 18:23:49.581Z41.644° NE2024-12-12 18:26:49.581Z95.486° ESE31.604°2024-12-12 18:30:49.581Z161.093° S
6 mins2024-12-12 20:03:49.581Z335.914° NNW2024-12-12 20:06:49.581Z288.002° WNW23.617°2024-12-12 20:09:49.581Z246.412° WSW
|